Location: Appeville
(49.3218°N, 1.3427°W)
Time: 05:48:26
(UTC+00:00)

Daily predictions for brighter satellites

Satellite Brightness Start Highest point End
(mag) Time Altitude Azimuth Time Altitude Azimuth Time Altitude Azimuth
Cosmos 2297 Rocket 3.7 04:10:09 29° NNE 04:10:09 29° NNE 04:12:50 10° NNE
Cosmos 2227 Rocket 3.5 04:13:54 32° NNE 04:13:54 32° NNE 04:16:53 10° NNE
CZ-4C R/B 2.7 04:27:04 79° NW 04:27:36 90° NE 04:35:47 10° SE
Cosmos 407 Rocket 4.2 04:29:54 51° SE 04:29:54 51° SE 04:33:57 10° SSE
Cosmos 1140 Rocket 4.1 04:32:38 54° ENE 04:32:38 54° ENE 04:37:39 10° SE
Cosmos 1464 Rocket 4.0 04:27:00 10° S 04:33:10 74° E 04:39:18 10° NNE
USA 234 3.2 04:29:24 10° ENE 04:35:58 77° SE 04:36:56 65° SSW
GEOS 3 Rocket 4.3 04:33:48 10° SE 04:37:16 44° SSE 04:37:16 44° SSE
SL-16 R/B 3.3 04:47:08 31° S 04:47:08 31° S 04:50:05 10° S
Cosmos 1933 Rocket 4.5 04:44:34 10° SSE 04:48:43 46° E 04:52:53 10° NNE
Cosmos 1603 4.2 04:48:58 39° N 04:50:51 57° ENE 04:56:29 10° SE
Cosmos 1072 Rocket 4.3 04:52:20 66° SW 04:53:09 76° W 04:59:20 10° N
NOSS 2-1 (E) 4.4 04:55:12 57° NNW 04:56:21 74° NE 05:03:40 10° SE
Cosmos 1461 3.5 04:57:21 56° ESE 04:57:21 56° ESE 05:00:55 10° SE
Cosmos 2082 3.6 04:57:19 69° NNW 04:57:19 69° NNW 05:02:33 10° NNE
Meteor 1-27 Rocket 3.7 04:58:46 70° W 04:58:49 70° W 05:04:41 10° S
ATLAS 5 CENTAUR R/B 2.6 05:01:11 38° NNE 05:01:11 38° NNE 05:04:38 10° NE
Lacrosse 5 4.1 05:02:54 13° S 05:02:54 13° S 05:03:41 10° S
Nadezhda 4 Rocket 3.8 04:59:10 16° N 05:04:18 84° W 05:10:28 10° S
Cosmos 1513 Rocket 4.4 04:59:24 10° SSW 05:05:47 69° WNW 05:12:12 10° N
ALOS 3.5 05:02:49 10° NNE 05:07:16 41° E 05:11:40 10° SSE
STARLINK 1062 4.4 05:09:54 40° E 05:09:54 40° E 05:12:16 10° ESE
Cosmos 2084 Rocket 3.6 05:11:26 68° S 05:11:26 68° S 05:15:23 10° SE
STARLINK 1053 4.2 05:12:54 44° E 05:12:54 44° E 05:15:23 10° ESE
COSMO-SKYMED 1 2.5 05:08:25 10° SSE 05:12:46 87° ENE 05:13:07 75° N
Cosmos 1624 Rocket 4.1 05:07:36 10° SSW 05:12:54 81° ESE 05:18:18 10° NNE
STARLINK 1061 4.1 05:15:20 47° E 05:15:20 47° E 05:17:56 10° ESE
Okean O Rocket 3.3 05:11:51 10° NNE 05:15:52 34° E 05:19:53 10° SSE
STARLINK 1067 3.9 05:18:06 51° E 05:18:06 51° E 05:20:49 10° ESE
Cosmos 1607 4.0 05:17:02 49° WNW 05:17:45 52° NW 05:23:46 10° NE
Cosmos 2056 Rocket 3.4 05:13:06 11° SSW 05:18:06 85° ESE 05:23:15 10° NNE
Cosmos 1190 Rocket 4.0 05:19:26 54° WSW 05:19:26 54° WSW 05:24:23 10° S
STARLINK 1058 3.7 05:20:46 56° E 05:20:46 56° E 05:23:37 10° ESE
Cosmos 676 Rocket 3.9 05:18:53 43° NNW 05:20:40 84° WSW 05:25:57 10° SSE
Cosmos 2242 Rocket 3.6 05:21:38 62° SW 05:21:38 62° SW 05:25:44 10° S
USA 116 4.3 05:17:46 10° SSE 05:22:07 71° ENE 05:26:11 15° N
STARLINK 1027 4.2 05:23:41 37° ESE 05:23:41 37° ESE 05:25:35 10° ESE
STARLINK 1028 4.2 05:23:55 37° ESE 05:23:55 37° ESE 05:25:49 10° ESE
STARLINK 1043 3.5 05:23:30 62° E 05:23:30 62° E 05:26:28 10° ESE
STARLINK 1021 4.2 05:24:08 37° ESE 05:24:08 37° ESE 05:26:03 10° ESE
STARLINK 1034 4.2 05:24:18 38° ESE 05:24:18 38° ESE 05:26:16 10° ESE
STARLINK 1019 4.1 05:24:18 39° ESE 05:24:18 39° ESE 05:26:17 10° ESE
STARLINK 1012 4.2 05:24:33 37° ESE 05:24:33 37° ESE 05:26:29 10° ESE
STARLINK 1010 4.2 05:24:45 38° ESE 05:24:45 38° ESE 05:26:42 10° ESE
STARLINK 1026 4.1 05:25:01 38° ESE 05:25:01 38° ESE 05:26:58 10° ESE
STARLINK 1013 4.1 05:25:14 38° ESE 05:25:14 38° ESE 05:27:11 10° ESE
Cosmos 1703 Rocket 3.5 05:22:12 30° N 05:24:21 83° ENE 05:28:47 10° S
STARLINK 1009 4.1 05:25:26 38° ESE 05:25:26 38° ESE 05:27:24 10° ESE
STARLINK 1015 4.1 05:25:38 39° ESE 05:25:38 39° ESE 05:27:38 10° ESE
STARLINK 1052 4.1 05:25:45 40° ESE 05:25:45 40° ESE 05:27:46 10° ESE
STARLINK 1016 4.1 05:25:51 39° ESE 05:25:51 39° ESE 05:27:51 10° ESE
STARLINK 1008 4.1 05:26:05 39° ESE 05:26:05 39° ESE 05:28:05 10° ESE
STARLINK 1014 4.1 05:26:18 40° ESE 05:26:18 40° ESE 05:28:18 10° ESE
STARLINK 1025 4.0 05:26:31 40° ESE 05:26:31 40° ESE 05:28:32 10° ESE
STARLINK 1017 4.0 05:26:36 40° ESE 05:26:36 40° ESE 05:28:37 10° ESE
STARLINK 1065 3.4 05:26:09 67° E 05:26:09 67° E 05:29:14 10° ESE
STARLINK 1023 4.0 05:26:57 40° ESE 05:26:57 40° ESE 05:28:59 10° ESE
STARLINK 1007 4.0 05:27:09 41° ESE 05:27:09 41° ESE 05:29:11 10° ESE
STARLINK 1048 4.0 05:27:23 41° ESE 05:27:23 41° ESE 05:29:26 10° ESE
Cosmos 2026 Rocket 4.2 05:20:28 10° N 05:26:37 70° ENE 05:32:50 10° SSE
STARLINK 1049 4.0 05:27:35 41° ESE 05:27:35 41° ESE 05:29:39 10° ESE
STARLINK 1051 3.9 05:27:48 42° ESE 05:27:48 42° ESE 05:29:53 10° ESE
STARLINK 1037 3.9 05:28:01 42° ESE 05:28:01 42° ESE 05:30:06 10° ESE
STARLINK 1059 3.9 05:28:14 42° ESE 05:28:14 42° ESE 05:30:19 10° ESE
STARLINK 1057 3.9 05:28:27 43° ESE 05:28:27 43° ESE 05:30:33 10° ESE
STARLINK 1040 3.9 05:28:28 43° ESE 05:28:28 43° ESE 05:30:34 10° ESE
STARLINK 1068 3.8 05:28:53 43° ESE 05:28:53 43° ESE 05:31:00 10° ESE
STARLINK 1029 3.8 05:29:06 43° ESE 05:29:06 43° ESE 05:31:13 10° ESE
STARLINK 1060 3.8 05:29:20 44° ESE 05:29:20 44° ESE 05:31:28 10° ESE
STARLINK 1030 3.7 05:29:29 46° ESE 05:29:29 46° ESE 05:31:41 10° ESE
STARLINK 1063 3.2 05:29:02 74° E 05:29:02 74° E 05:32:13 10° ESE
STARLINK 1020 3.8 05:29:45 45° ESE 05:29:45 45° ESE 05:31:54 10° ESE
Geosat 4.2 05:24:41 10° S 05:29:32 48° WSW 05:30:00 46° W
STARLINK 1033 3.7 05:30:24 45° ESE 05:30:24 45° ESE 05:32:34 10° ESE
STARLINK 1031 3.7 05:30:37 46° ESE 05:30:37 46° ESE 05:32:48 10° ESE
STARLINK 1024 3.7 05:30:47 48° ESE 05:30:47 48° ESE 05:33:02 10° ESE
STARLINK 1035 3.7 05:31:04 47° ESE 05:31:04 47° ESE 05:33:16 10° ESE
Cosmos 1484 Rocket 2.6 05:26:33 10° N 05:30:32 75° WNW 05:34:25 10° SSW
STARLINK 1032 3.7 05:31:16 47° ESE 05:31:16 47° ESE 05:33:28 10° ESE
STARLINK 1011 3.6 05:31:27 49° ESE 05:31:27 49° ESE 05:33:43 10° ESE
STARLINK 1036 3.6 05:31:42 47° ESE 05:31:42 47° ESE 05:33:55 10° ESE
STARLINK 1047 3.6 05:32:08 48° ESE 05:32:08 48° ESE 05:34:22 10° ESE
STARLINK 1064 3.1 05:31:39 80° E 05:31:39 80° E 05:34:57 10° ESE
Cosmos 1954 Rocket 3.9 05:29:25 36° NW 05:31:34 73° WSW 05:36:50 10° SSE
PSLV R/B 3.7 05:30:10 10° N 05:34:15 73° WNW 05:38:21 10° SSW
STARLINK 1041 3.0 05:34:24 87° E 05:34:24 87° E 05:37:48 10° ESE
STARLINK 1038 3.0 05:37:10 86° W 05:37:14 88° SSW 05:40:42 10° ESE
Cosmos 2263 Rocket 2.9 05:31:55 10° S 05:37:20 54° ESE 05:42:45 10° NE
Cosmos 1420 Rocket 4.4 05:33:53 10° S 05:39:01 63° ESE 05:44:09 10° NNE
STARLINK 1046 2.9 05:39:54 79° W 05:40:05 85° SSW 05:43:33 10° ESE
STARLINK 1039 2.9 05:42:40 72° W 05:42:58 82° SSW 05:46:26 10° ESE
Cosmos 1869 Rocket 3.9 05:39:34 10° S 05:43:51 65° E 05:48:09 10° NNE
STARLINK 1045 3.0 05:43:36 70° W 05:43:57 81° SSW 05:47:25 10° ESE
Cosmos 1634 Rocket 4.0 05:38:20 10° S 05:44:32 81° E 05:50:45 10° N
Cosmos 2034 Rocket 4.1 05:39:24 10° SSW 05:45:30 49° WNW 05:51:41 10° N
Cosmos 2227 4.3 05:41:15 10° SSW 05:47:00 82° ESE 05:52:49 10° NNE
Cosmos 1741 Rocket 4.3 05:43:11 14° NNW 05:47:39 67° ENE 05:52:50 10° SSE
FALCON 9 DEB 3.8 05:50:58 28° SSE 05:50:58 28° SSE 05:52:25 10° SE
Cosmos 1627 Rocket 4.4 05:44:30 10° NNW 05:50:44 77° W 05:57:01 10° S
Cosmos 2297 Rocket 3.3 05:51:59 23° NW 05:51:59 23° NW 05:56:23 10° N
SJ-12 3.9 05:50:04 10° N 05:54:10 59° WNW 05:58:12 10° SSW
Cosmos 2227 Rocket 3.3 05:55:45 23° NW 05:55:57 23° NW 06:00:28 10° N
STARLINK 1044 2.9 05:58:28 49° SW 05:58:42 52° SSW 06:01:31 10° SE
CZ-4B R/B 3.4 05:53:08 10° NNE 05:58:45 80° ESE 06:04:24 10° SSW
ATLAS CENTAUR R/B 3.6 05:57:30 12° NNW 06:00:06 18° NNE 06:03:01 10° ENE
CZ-2C R/B 4.2 05:57:25 10° NNW 05:58:18 14° NNW 05:58:18 14° NNW
SKYMED 2 4.3 05:57:11 10° SSW 06:01:04 32° W 06:01:49 30° WNW
FENGYUN 3A 3.5 05:56:22 10° NNE 06:01:46 75° WNW 06:07:08 10° SSW
Meteor 1-14 Rocket 4.4 05:56:12 10° S 06:02:08 83° E 06:08:09 10° NNE
Cosmos 1452 Rocket 3.6 05:59:33 10° SSW 06:04:49 81° ESE 06:10:09 10° NNE
Cosmos 1346 Rocket 3.3 06:01:25 10° S 06:05:13 61° E 06:09:04 10° NNE
Meteor 1-25 Rocket 4.1 06:00:01 10° SSW 06:05:34 68° WNW 06:11:16 10° N
DMSP B5D1-3 4.5 06:00:59 10° S 06:06:05 66° WSW 06:11:16 10° NNW
NOAA 6 4.0 06:01:22 10° NNE 06:06:31 86° WNW 06:11:39 10° SSW
PAYLOAD B 4.1 06:02:20 10° NNE 06:07:50 69° WNW 06:13:19 10° SSW
Cosmos 1850 Rocket 4.0 06:04:09 12° NNW 06:09:08 82° WSW 06:14:29 10° SSE
Cosmos 1092 Rocket 4.2 06:03:21 10° NNW 06:09:09 44° W 06:14:55 10° SSW
Timation 1 Rocket 4.4 06:09:03 10° SSW 06:15:00 81° ESE 06:21:01 10° NNE
FALCON 9 DEB 3.7 06:15:24 22° SW 06:15:32 23° SW 06:17:29 10° SSE
Cosmos 1943 3.4 06:11:29 17° NW 06:15:33 49° WSW 06:20:55 10° S
CZ-4C R/B 3.9 06:12:17 20° WNW 06:15:45 27° WSW 06:22:17 10° SSW
H-2A R/B 3.6 06:14:11 10° NNE 06:17:51 52° E 06:21:31 10° S
USA 234 3.5 06:12:31 10° ENE 06:18:51 55° NNW 06:24:18 14° W
CZ-4 R/B 4.4 06:17:56 10° NE 06:20:19 15° E 06:22:41 10° SE
FALCON 9 DEB 3.9 06:21:27 19° SW 06:21:48 20° SW 06:23:40 10° SSE
Okean 1-7 3.8 06:20:10 15° NW 06:23:07 31° W 06:26:58 10° SSW
Meteor 1-19 Rocket 4.2 06:17:57 10° NNW 06:23:22 63° W 06:28:52 10° S
Cosmos 2082 Rocket 4.4 06:21:18 10° N 06:24:21 15° NNE 06:27:25 10° ENE
Cosmos 405 3.9 06:24:13 10° N 06:27:42 50° ENE 06:31:09 10° SSE
ADEOS Rocket 3.3 06:21:05 10° SSE 06:28:10 85° ENE 06:34:32 10° NNW
STARLINK 1050 3.9 06:27:04 20° W 06:28:59 39° SW 06:32:13 10° SE
CZ-2C R/B 4.2 06:24:29 10° SSE 06:29:11 68° ENE 06:33:56 10° N
METEOR-M 4.4 06:24:26 10° N 06:29:31 44° WNW 06:34:33 10° SW
STARLINK 1055 4.0 06:29:46 19° W 06:31:47 37° SW 06:34:58 10° SSE
Cosmos 371 Rocket 4.3 06:29:08 10° S 06:33:48 50° ESE 06:38:31 10° NNE
STARLINK 1022 4.0 06:31:42 18° W 06:33:48 36° SW 06:36:58 10° SSE
SMAP 3.2 06:32:10 10° NNE 06:36:52 80° ESE 06:41:31 10° SSW
Okean 1 4.2 06:33:57 12° NNW 06:37:04 28° W 06:40:27 10° SSW
STARLINK 1042 4.1 06:35:01 17° W 06:37:12 34° SW 06:40:21 10° SSE
Meteor 2-4 Rocket 3.6 06:32:14 10° NNW 06:37:48 74° W 06:43:11 10° S
STARLINK 1056 4.2 06:37:46 15° W 06:40:04 33° SW 06:43:11 10° SSE
Cosmos 2221 Rocket 3.9 06:36:35 10° NNW 06:40:47 45° W 06:44:59 10° SSW
Helios 1A Rocket 3.4 06:38:18 10° N 06:42:00 35° WNW 06:45:41 10° SW
STARLINK 1054 4.3 06:40:31 14° W 06:42:56 31° SW 06:46:01 10° SSE
ALOS 3.1 06:40:33 10° N 06:44:32 28° WNW 06:48:30 10° WSW
ATLAS 5 CENTAUR R/B 3.3 06:42:44 13° WNW 06:45:34 20° NNW 06:49:27 10° NNE
STARLINK 1062 4.3 06:43:07 13° W 06:45:37 30° SW 06:48:39 10° SSE
CZ-2C R/B 4.4 06:41:40 10° ESE 06:46:11 29° ENE 06:50:39 10° N
Cosmos 44 4.0 06:42:52 10° SSW 06:47:30 54° ESE 06:51:55 10° NE
STARLINK 1053 4.4 06:46:06 12° W 06:48:42 29° SW 06:51:43 10° SSE
Cosmos 2180 Rocket 4.4 06:43:26 10° SSW 06:49:32 70° WNW 06:55:43 10° N
COSMO-SKYMED 1 4.4 06:48:08 10° WSW 06:49:34 11° W 06:50:20 11° WNW
STARLINK 1061 4.5 06:48:33 12° W 06:51:15 27° SW 06:54:13 10° SSE
Okean O Rocket 2.4 06:48:21 10° N 06:52:10 30° WNW 06:55:59 10° SW
CORIOLIS 4.3 06:49:24 10° NNE 06:54:53 86° ESE 07:00:17 10° SSW
Cosmos 2266 Rocket 4.0 06:48:37 10° NNW 06:54:55 80° W 07:01:04 10° S
Cosmos 1515 4.4 06:54:15 10° NNW 06:57:44 34° W 07:01:13 10° SSW
Feng Yun 1-1 Rocket 4.3 06:52:19 10° NNE 06:57:52 83° WNW 07:03:33 10° SSW
SOZ 4.0 06:56:21 11° WNW 06:58:26 51° SSW 07:00:37 10° SE
Cosmos 1331 Rocket 4.2 06:54:03 10° SSW 06:59:12 78° ESE 07:04:24 10° NNE
IRIDIUM 104 4.4 06:54:05 10° N 06:59:20 89° W 07:04:34 10° S
SAR-Lupe-2 3.5 06:56:09 10° S 06:59:44 77° WSW 07:03:21 10° NNW
USA 81 4.2 06:54:54 10° N 07:00:13 83° E 07:05:29 10° S
Cosmos 1500 3.1 06:56:27 10° SSW 07:00:17 70° W 07:04:08 10° N
Cosmos 1340 3.5 06:57:36 10° SW 07:00:55 29° WNW 07:04:16 10° N
Meteor 1-13 Rocket 4.2 06:56:27 10° NNW 07:01:55 63° W 07:07:23 10° S
Cosmos 1536 3.0 07:00:09 10° S 07:04:13 81° E 07:08:18 10° NNE
Okean-O 2.7 07:01:33 10° NNE 07:06:01 86° ESE 07:10:27 10° SSW
IRIDIUM 114 4.3 07:03:13 10° N 07:08:27 75° W 07:13:39 10° S
Cosmos 1110 Rocket 4.0 07:04:00 10° SSW 07:09:12 81° WNW 07:14:24 10° NNE
